When you browse on this site, cookies collect data to enhance your experience and personalize the content and advertising you see.
Visit our Privacy Policy to learn more. By continuing to use the site, you agree to this use of cookies and data.
  • In Czech Republic
  • List of Countries
  • For 7 days
  • Water Temperature
  • Weather Map
  • Weather Widgets
  • user-avatar
    Login

    Hourly Weather Baden-Baden

    Today, 10 April, Friday

    Time Temperature Precipitation Wind Pressure Humidity
    00:00 +13°C° 0 mm 1 mps 735 mmHg 60%
    01:00 +12°C° 0 mm 1 mps 736 mmHg 63%
    02:00 +12°C° 0 mm 1 mps 735 mmHg 65%
    03:00 +11°C° 0 mm 1 mps 735 mmHg 68%
    04:00 +11°C° 0 mm 1 mps 735 mmHg 70%
    05:00 +11°C° 0 mm 1 mps 735 mmHg 71%
    06:00 +12°C° 0 mm 1 mps 735 mmHg 73%
    07:00 +12°C° 0 mm 1 mps 736 mmHg 74%
    08:00 +14°C° 0 mm 1 mps 736 mmHg 68%
    09:00 +16°C° 0 mm 2 mps 736 mmHg 62%
    10:00 +18°C° 0 mm 2 mps 736 mmHg 56%
    11:00 +19°C° 0 mm 2 mps 736 mmHg 53%
    12:00 +20°C° 0 mm 3 mps 736 mmHg 51%
    13:00 +21°C° 0 mm 3 mps 736 mmHg 49%
    14:00 +21°C° 0 mm 3 mps 735 mmHg 49%
    15:00 +21°C° 0 mm 3 mps 735 mmHg 49%
    16:00 +21°C° 0 mm 3 mps 734 mmHg 49%
    17:00 +19°C° 0 mm 2 mps 734 mmHg 55%
    18:00 +17°C° 0 mm 2 mps 734 mmHg 61%
    19:00 +15°C° 0 mm 2 mps 734 mmHg 66%
    20:00 +14°C° 0 mm 2 mps 735 mmHg 68%
    21:00 +13°C° 0 mm 2 mps 735 mmHg 69%
    22:00 +12°C° 0 mm 1 mps 735 mmHg 70%
    23:00 +12°C° 0 mm 1 mps 735 mmHg 70%

    Tomorrow, 11 April, Saturday

    Time Temperature Precipitation Wind Pressure Humidity
    00:00 +11°C° 0 mm 1 mps 735 mmHg 71%
    01:00 +11°C° 0 mm 1 mps 735 mmHg 71%
    02:00 +10°C° 0 mm 1 mps 735 mmHg 74%
    03:00 +10°C° 0 mm 1 mps 735 mmHg 77%
    04:00 +9°C° 0 mm 1 mps 735 mmHg 79%
    05:00 +10°C° 0 mm 1 mps 735 mmHg 79%
    06:00 +10°C° 0 mm 1 mps 735 mmHg 80%
    07:00 +11°C° 0 mm 1 mps 735 mmHg 80%
    08:00 +13°C° 0 mm 2 mps 736 mmHg 74%
    09:00 +15°C° 0 mm 2 mps 736 mmHg 67%
    10:00 +17°C° 0 mm 2 mps 736 mmHg 61%
    11:00 +18°C° 0 mm 2 mps 735 mmHg 58%
    12:00 +19°C° 0 mm 2 mps 735 mmHg 54%
    13:00 +20°C° 0 mm 2 mps 735 mmHg 51%
    14:00 +20°C° 0 mm 2 mps 735 mmHg 50%
    15:00 +20°C° 0 mm 2 mps 734 mmHg 50%
    16:00 +20°C° 0 mm 2 mps 734 mmHg 50%
    17:00 +18°C° 0 mm 2 mps 734 mmHg 55%
    18:00 +17°C° 0 mm 2 mps 733 mmHg 60%
    19:00 +15°C° 0 mm 2 mps 733 mmHg 66%
    20:00 +14°C° 0 mm 1 mps 733 mmHg 67%
    21:00 +13°C° 0 mm 1 mps 733 mmHg 69%
    22:00 +12°C° 0 mm 1 mps 733 mmHg 70%
    23:00 +12°C° 0 mm 1 mps 733 mmHg 72%

    Day after tomorrow, 12 April, Sunday

    Time Temperature Precipitation Wind Pressure Humidity
    00:00 +12°C° 0 mm 1 mps 733 mmHg 74%
    01:00 +11°C° 0 mm 1 mps 733 mmHg 76%
    02:00 +11°C° 0 mm 1 mps 733 mmHg 78%
    03:00 +10°C° 0 mm 1 mps 732 mmHg 81%
    04:00 +9°C° 0 mm 0 mps 732 mmHg 83%
    05:00 +10°C° 0 mm 0 mps 732 mmHg 82%
    06:00 +10°C° 0 mm 0 mps 732 mmHg 81%
    07:00 +11°C° 0 mm 0 mps 732 mmHg 79%
    08:00 +14°C° 0 mm 1 mps 732 mmHg 73%
    09:00 +16°C° 0 mm 1 mps 731 mmHg 66%
    10:00 +19°C° 0 mm 1 mps 731 mmHg 60%
    11:00 +20°C° 0 mm 1 mps 731 mmHg 55%
    12:00 +21°C° 0 mm 1 mps 730 mmHg 50%
    13:00 +22°C° 0 mm 1 mps 730 mmHg 45%
    14:00 +22°C° 0 mm 1 mps 729 mmHg 45%
    15:00 +21°C° 0 mm 2 mps 729 mmHg 44%
    16:00 +21°C° 0 mm 2 mps 728 mmHg 44%
    17:00 +20°C° 0.1 mm 1 mps 728 mmHg 52%
    18:00 +18°C° 0.1 mm 1 mps 727 mmHg 59%
    19:00 +16°C° 0.1 mm 1 mps 727 mmHg 67%
    20:00 +15°C° 0.3 mm 1 mps 727 mmHg 71%
    21:00 +14°C° 0.3 mm 1 mps 727 mmHg 75%
    22:00 +13°C° 0.3 mm 1 mps 728 mmHg 78%
    23:00 +13°C° 0.4 mm 1 mps 728 mmHg 81%

    13 April, Monday

    Time Temperature Precipitation Wind Pressure Humidity
    00:00 +12°C° 0.4 mm 1 mps 728 mmHg 83%
    01:00 +12°C° 0.4 mm 2 mps 727 mmHg 85%
    02:00 +12°C° 0 mm 2 mps 727 mmHg 84%
    03:00 +10°C° 0 mm 3 mps 727 mmHg 82%
    04:00 +10°C° 0 mm 3 mps 727 mmHg 80%
    05:00 +10°C° 0 mm 3 mps 727 mmHg 80%
    06:00 +10°C° 0 mm 3 mps 727 mmHg 79%
    07:00 +10°C° 0 mm 2 mps 727 mmHg 79%
    08:00 +13°C° 0 mm 2 mps 728 mmHg 72%
    09:00 +14°C° 0 mm 2 mps 728 mmHg 66%
    10:00 +15°C° 0 mm 2 mps 728 mmHg 59%
    11:00 +16°C° 0 mm 2 mps 728 mmHg 54%
    12:00 +17°C° 0 mm 2 mps 728 mmHg 50%
    13:00 +17°C° 0 mm 2 mps 728 mmHg 45%
    14:00 +17°C° 0 mm 3 mps 727 mmHg 49%
    15:00 +17°C° 0 mm 3 mps 727 mmHg 52%
    16:00 +16°C° 0 mm 3 mps 727 mmHg 56%
    17:00 +15°C° 0 mm 2 mps 727 mmHg 63%
    18:00 +14°C° 0 mm 2 mps 726 mmHg 70%
    19:00 +12°C° 0 mm 1 mps 726 mmHg 78%
    20:00 +12°C° 0.1 mm 1 mps 727 mmHg 80%
    21:00 +10°C° 0.1 mm 2 mps 727 mmHg 83%
    22:00 +10°C° 0.1 mm 2 mps 728 mmHg 86%
    23:00 +9°C° 0.3 mm 3 mps 728 mmHg 85%

    14 April, Tuesday

    Time Temperature Precipitation Wind Pressure Humidity
    00:00 +7°C° 0.3 mm 4 mps 728 mmHg 83%
    01:00 +7°C° 0.3 mm 5 mps 729 mmHg 81%
    02:00 +5°C° 0 mm 5 mps 729 mmHg 82%
    03:00 +4°C° 0 mm 4 mps 729 mmHg 83%
    04:00 +3°C° 0 mm 4 mps 729 mmHg 83%
    05:00 +1°C° 0 mm 4 mps 729 mmHg 81%
    06:00 +1°C° 0 mm 4 mps 729 mmHg 78%
    07:00 +1°C° 0 mm 4 mps 730 mmHg 76%
    08:00 +3°C° 0 mm 4 mps 730 mmHg 65%
    09:00 +3°C° 0 mm 5 mps 730 mmHg 54%
    10:00 +6°C° 0 mm 5 mps 730 mmHg 43%
    11:00 +7°C° 0 mm 5 mps 729 mmHg 40%
    12:00 +8°C° 0 mm 6 mps 729 mmHg 38%
    13:00 +10°C° 0 mm 6 mps 729 mmHg 35%
    14:00 +10°C° 0 mm 6 mps 728 mmHg 36%
    15:00 +10°C° 0 mm 7 mps 728 mmHg 37%
    16:00 +10°C° 0 mm 7 mps 727 mmHg 38%
    17:00 +8°C° 0 mm 7 mps 727 mmHg 41%
    18:00 +7°C° 0 mm 6 mps 726 mmHg 44%
    19:00 +6°C° 0 mm 5 mps 726 mmHg 48%
    20:00 +4°C° 0 mm 6 mps 726 mmHg 48%
    21:00 +3°C° 0 mm 6 mps 726 mmHg 49%
    22:00 +3°C° 0 mm 6 mps 726 mmHg 49%
    23:00 +2°C° 0 mm 6 mps 726 mmHg 50%

    15 April, Wednesday

    Time Temperature Precipitation Wind Pressure Humidity
    00:00 +2°C° 0 mm 6 mps 726 mmHg 50%
    01:00 +1°C° 0 mm 6 mps 726 mmHg 50%
    02:00 +1°C° 0 mm 6 mps 726 mmHg 52%
    03:00 0°C° 0 mm 5 mps 726 mmHg 53%
    04:00 0°C° 0 mm 5 mps 725 mmHg 54%
    05:00 0°C° 0 mm 5 mps 726 mmHg 55%
    06:00 0°C° 0 mm 5 mps 726 mmHg 55%
    07:00 +1°C° 0 mm 4 mps 726 mmHg 55%
    08:00 +4°C° 0 mm 4 mps 726 mmHg 52%
    09:00 +5°C° 0 mm 4 mps 726 mmHg 50%
    10:00 +7°C° 0 mm 4 mps 726 mmHg 47%
    11:00 +10°C° 0 mm 4 mps 726 mmHg 47%
    12:00 +12°C° 0 mm 4 mps 726 mmHg 46%
    13:00 +13°C° 0 mm 4 mps 726 mmHg 46%
    14:00 +14°C° 0 mm 4 mps 726 mmHg 46%
    15:00 +14°C° 0 mm 5 mps 725 mmHg 47%
    16:00 +15°C° 0 mm 5 mps 725 mmHg 47%
    17:00 +13°C° 0 mm 4 mps 725 mmHg 52%
    18:00 +12°C° 0 mm 4 mps 724 mmHg 57%
    19:00 +11°C° 0 mm 4 mps 724 mmHg 61%
    20:00 +10°C° 0 mm 4 mps 725 mmHg 61%
    21:00 +8°C° 0 mm 4 mps 725 mmHg 62%
    22:00 +7°C° 0 mm 4 mps 725 mmHg 62%
    23:00 +7°C° 0 mm 4 mps 726 mmHg 64%
    Show more